This demonstration page uses our WeatherBlox Daily Observations layout. Learn more.

Left ArrowRight Arrow

Hourly Observations for August 8, 2021

Temp ( °F °C ) Dew Point ( °F °C ) Humidity (%) Winds ( mph kmh ) Pressure ( in mb ) Visibility ( mi km ) Precip ( " mm )
12:53 am 00:53 Cloudy with Haze 75 23.9 51 10.6 43 43 Calm 29.78 1009 3 5 0.00 0.00
1:53 am 01:53 Cloudy with Haze 74 23.3 53 11.7 48 48 N 3 6 29.78 1008 3 5 0.00 0.00
2:53 am 02:53 Cloudy with Haze 71 21.7 54 12.2 55 55 Calm 29.77 1008 3 5 0.00 0.00
3:53 am 03:53 Cloudy with Haze 69 20.6 55 12.8 61 61 Calm 29.78 1008 3 5 0.00 0.00
4:53 am 04:53 Cloudy with Haze 68 20 53 11.7 59 59 Calm 29.78 1008 3 5 0.00 0.00
5:53 am 05:53 Cloudy with Haze 68 20 52 11.1 57 57 Calm 29.78 1009 3 5 0.00 0.00
6:27 am 06:27 Cloudy with Haze 67 19.4 54 12.2 63 63 Calm 29.80 1009 2 3 0.00 0.00
6:53 am 06:53 Cloudy with Haze 66 18.9 54 12.2 65 65 Calm 29.80 1009 2 3 0.00 0.00
7:53 am 07:53 Cloudy with Haze 69 20.6 53 11.7 57 57 Calm 29.81 1009 2 3 0.00 0.00
8:53 am 08:53 Cloudy with Haze 75 23.9 51 10.6 43 43 ENE 3 6 29.81 1010 2 3 0.00 0.00
9:53 am 09:53 Cloudy with Haze 80 26.7 52 11.1 38 38 Calm 29.81 1009 2 3 0.00 0.00
10:53 am 10:53 Cloudy with Haze 85 29.4 51 10.6 31 31 Calm 29.81 1009 2 3 0.00 0.00
11:43 am 11:43 Cloudy with Haze 86 30 53 11.7 32 32 Calm 29.80 1009 2 3 0.00 0.00
11:53 am 11:53 Cloudy with Haze 87 30.6 53 11.7 31 31 Calm 29.80 1009 2 3 0.00 0.00
12:21 pm 12:21 Cloudy with Haze 89 31.7 52 11.1 28 28 VRB 3 6 29.79 1009 2 3 0.00 0.00
12:49 pm 12:49 Cloudy with Haze 90 32 52 11 27 27 S 6 9 29.79 1009 1 2 0.00 0.00
12:53 pm 12:53 Cloudy with Haze 90 32.2 52 11.1 27 27 VRB 6 9 29.80 1009 1 2 0.00 0.00
1:02 pm 13:02 Cloudy with Haze 92 33.3 47 8.3 21 21 SW 8 13 29.78 1008 2 3 0.00 0.00
1:11 pm 13:11 Cloudy with Haze 92 33.3 47 8.3 21 21 SSE 12 19 29.78 1008 2 3 0.00 0.00
1:41 pm 13:41 Cloudy with Haze 93 33.9 48 8.9 21 21 S 10 17 29.76 1008 2 3 0.00 0.00
1:53 pm 13:53 Cloudy with Haze 93 33.9 46 7.8 20 20 SSW 7 11 29.78 1008 2 3 0.00 0.00
2:22 pm 14:22 Cloudy with Haze 95 35 40 4.4 15 15 S 12 19 29.75 1008 3 5 0.00 0.00
2:53 pm 14:53 Mostly Cloudy with Haze 96 35.6 40 4.4 14 14 S 6 9 29.76 1008 4 6 0.00 0.00
3:53 pm 15:53 Hazy 96 35.6 40 4.4 14 14 S 10 17 29.75 1007 6 10 0.00 0.00
4:53 pm 16:53 Hazy 96 35.6 37 2.8 13 13 S 10 17 29.74 1007 5 8 0.00 0.00
5:53 pm 17:53 Hazy 96 35.6 37 2.8 13 13 S 8 13 29.73 1007 5 8 0.00 0.00
6:53 pm 18:53 Cloudy with Haze 94 34.4 44 6.7 18 18 S 7 11 29.73 1007 4 6 0.00 0.00
7:53 pm 19:53 Cloudy with Haze 89 31.7 48 8.9 24 24 SE 7 11 29.74 1007 4 6 0.00 0.00
8:53 pm 20:53 Hazy 85 29.4 48 8.9 28 28 E 5 7 29.75 1008 6 10 0.00 0.00
9:53 pm 21:53 Hazy 83 28.3 50 10 32 32 E 3 6 29.77 1008 6 10 0.00 0.00
10:53 pm 22:53 Hazy 79 26.1 50 10 36 36 N 6 9 29.78 1009 6 10 0.00 0.00
11:53 pm 23:53 Hazy 77 25 48 8.9 36 36 Calm 29.79 1009 6 10 0.00 0.00

Powered by AerisWeather